Погода в Чирпане

Болгария     42°11′55″N   25°19′46″E
темп.,
°C
ветер,
м/с
пор.,
м/с
влажн.,
%
обл.,
%
осадки,
мм/ч
давл.,
гПа
погр.,
м
24 июня, чт
чт2400:00+22в11770 0.0 101711
03:00+21св11830 0.1 101611
06:00+20зсз11910 0.4 101711
09:00+25з22710 0.4 1017301
12:00+31з12470 0.0 10161091
15:00+35ссв24311 0.0 10152775
18:00+34св43330 0.0 10141281
21:00+26в48630 0.0 1015129
25 июня, пт
пт2500:00+24всв227383 0.0 101622
03:00+23св007610 0.0 101511
06:00+21зсз22812 0.0 101412
09:00+27з23590 0.0 1014362
12:00+33ююз01420 0.0 1014999
15:00+35ю24344 0.0 10122175
18:00+36ю32334 0.0 10101508
21:00+29в335515 0.0 101135
26 июня, сб
сб2600:00+26св476124 0.0 1012125
03:00+22св2684100 2.9 1013166
06:00+20зсз2389100 0.0 101470
09:00+25зсз23695 0.0 1013330
12:00+31ююв11480 0.0 10131043
15:00+34вюв33370 0.0 10111998
18:00+31юв584588 0.0 1009532
21:00+18сз4590100 7.7 1013171
27 июня, вс
вс2700:00+19зсз712909 1.0 1014367
03:00+18сз37910 1.0 1013159
06:00+18з22881 0.0 101444
09:00+23з22680 0.0 1014277
12:00+29з22450 0.0 1014917
15:00+32ююз12387 0.0 10121733
18:00+32всв323882 0.0 10122115
21:00+21ююв358770 3.3 1014110
28 июня, пн
пн2800:00+20ссз11884 1.8 101615
03:00+19зсз22900 1.8 101535
06:00+19зсз24930 0.0 101669
09:00+24зсз23720 0.0 1016325
12:00+30ю01470 0.0 10161143
15:00+32ююз333412 0.0 10142512
18:00+30всв454574 0.0 1014671
21:00+24всв48640 0.0 1015176